Weather History for Renton, WA

Change the Weather History Date:

Wednesday, January 4, 2012

  Actual Average Record
Temperature  
Mean Temperature 48 °F -  
Max Temperature 53 °F 45 °F 53 °F (2015)
Min Temperature 42 °F 36 °F 39 °F (2015)
Degree Days  
Heating Degree Days 18    
Moisture  
Dew Point 45 °F    
Average Humidity 89    
Maximum Humidity 97    
Minimum Humidity 77    
Precipitation  
Precipitation 0.00 in - - ()
Sea Level Pressure  
Sea Level Pressure 30.12 in    
Wind  
Wind Speed 4 mph (SSE)    
Max Wind Speed 14 mph    
Max Gust Speed 22 mph    
Visibility 7 miles    
Events Rain    
Averages and records for this station are not official NWS values.
T = Trace of Precipitation, MM = Missing Value Source: NWS Daily Summary

Daily Weather History Graph

Daily Weather History Graph

Search for Another Location

Airport:

Trip Planner

Search our weather history database for the weather conditions in past years. The results will help you decide how hot, cold, wet, or windy it might be!

Date:

Astronomy

Jan. 04, 2012 Rise Set
Actual Time 7:56 AM PST 4:31 PM PST
Civil Twilight 7:20 AM PST 5:06 PM PST
Nautical Twilight 6:42 AM PST 5:45 PM PST
Astronomical Twilight 6:04 AM PST 6:22 PM PST
Moon 12:59 PM PST (1/4) 3:47 AM PST (1/4)
Length of Visible Light 9h 45m
Length of Day
8h 34m
Waxing Gibbous, 81% of the Moon is Illuminated
Jan 4
Waxing Gibbous
Jan 8
Full
Jan 16
Last Quarter
Jan 22
New
Jan 30
First Quarter

Hourly Weather History & Observations

Time (PST) Temp. Windchill Dew Point Humidity Pressure Visibility Wind Dir Wind Speed Gust Speed Precip Events Conditions
12:53 AM 42.1 °F - 41.0 °F 96% 30.21 in 10.0 mi Calm Calm - N/A   Scattered Clouds
1:53 AM 42.1 °F 40.2 °F 41.0 °F 96% 30.19 in 10.0 mi SSE 3.5 mph - N/A   Scattered Clouds
2:53 AM 44.1 °F - 42.1 °F 93% 30.17 in 10.0 mi Calm Calm - N/A   Mostly Cloudy
3:53 AM 43.0 °F 41.3 °F 42.1 °F 97% 30.15 in 10.0 mi SE 3.5 mph - N/A   Mostly Cloudy
4:53 AM 43.0 °F 39.5 °F 41.0 °F 93% 30.14 in 10.0 mi SSE 5.8 mph - N/A   Partly Cloudy
5:53 AM 42.1 °F 38.4 °F 39.9 °F 92% 30.12 in 10.0 mi SSE 5.8 mph - N/A   Scattered Clouds
6:53 AM 43.0 °F 41.3 °F 39.9 °F 89% 30.09 in 10.0 mi SSE 3.5 mph - N/A   Mostly Cloudy
7:53 AM 46.4 °F - 41.0 °F 81% 30.10 in 10.0 mi Calm Calm - N/A   Overcast
8:53 AM 45.0 °F - 42.1 °F 90% 30.14 in 8.0 mi Calm Calm - 0.00 in Rain Light Rain
9:53 AM 48.0 °F - 43.0 °F 83% 30.16 in 8.0 mi Calm Calm - 0.00 in Rain Light Rain
10:53 AM 48.9 °F - 45.0 °F 86% 30.16 in 6.0 mi Variable 3.5 mph - 0.00 in Rain Light Rain
11:53 AM 48.0 °F - 46.0 °F 93% 30.14 in 3.0 mi Calm Calm - N/A Rain Rain
12:53 PM 48.0 °F - 46.9 °F 96% 30.11 in 3.0 mi East 6.9 mph - N/A Rain Rain
12:56 PM 48.2 °F - 46.4 °F 93% 30.10 in 2.5 mi ESE 4.6 mph - N/A Rain Rain
1:53 PM 48.0 °F - 46.9 °F 96% 30.09 in 2.5 mi ESE 5.8 mph - N/A Rain Rain
2:10 PM 48.2 °F - 46.4 °F 93% 30.08 in 4.0 mi ESE 5.8 mph - N/A Rain Light Rain
2:31 PM 48.2 °F - 46.4 °F 93% 30.07 in 2.5 mi SE 4.6 mph - N/A Rain Rain
2:43 PM 48.2 °F - 46.4 °F 93% 30.07 in 2.5 mi SE 4.6 mph - N/A Rain Light Rain
2:53 PM 48.9 °F - 46.9 °F 93% 30.09 in 2.0 mi SSE 5.8 mph - N/A Rain Light Rain
3:53 PM 50.0 °F - 48.0 °F 93% 30.08 in 2.5 mi SE 6.9 mph - N/A Rain Light Rain
4:37 PM 51.8 °F - 48.2 °F 88% 30.04 in 9.0 mi SE 8.1 mph - N/A Rain Light Rain
4:53 PM 51.1 °F - 48.0 °F 89% 30.06 in 10.0 mi SSE 6.9 mph - N/A Rain Light Rain
5:53 PM 53.1 °F - 48.0 °F 83% 30.06 in 10.0 mi SSE 9.2 mph 21.9 mph N/A Rain Light Rain
6:53 PM 53.1 °F - 48.0 °F 83% 30.06 in 10.0 mi SSE 9.2 mph - N/A Rain Light Rain
7:44 PM 53.6 °F - 48.2 °F 82% 30.07 in 4.0 mi SSE 9.2 mph - N/A Rain Light Rain
7:53 PM 53.1 °F - 48.0 °F 83% 30.09 in 6.0 mi South 13.8 mph - N/A Rain Light Rain
8:53 PM 52.0 °F - 48.0 °F 86% 30.14 in 10.0 mi SSW 10.4 mph 17.3 mph N/A Rain Light Rain
9:53 PM 51.1 °F - 46.0 °F 83% 30.18 in 10.0 mi South 8.1 mph - N/A   Clear
10:53 PM 50.0 °F - 43.0 °F 77% 30.19 in 10.0 mi South 8.1 mph - N/A   Partly Cloudy
11:53 PM 50.0 °F - 44.1 °F 80% 30.20 in 10.0 mi SSE 8.1 mph - N/A   Mostly Cloudy